DateTimeUTC,F1_A11,F1_S11,BsB_S11,BsG_S11,BsR_S11,BbsB_S11,BbsG_S11,BbsR_S11,BaB_A11,BaG_A11,BaR_A11,Tu_S11,T_S11,Uu_S11,U_S11,P_S11,T1_A11
2021-08-09T18:00:00Z,00000200,20000000,,,,,,,-000.38,0000.24,-000.07,19.2,25.7,09.5,06.4,0670.4,31.0
2021-08-09T18:01:00Z,00000200,20000000,,,,,,,0000.39,0000.04,0000.40,19.2,25.7,09.4,06.3,0670.4,31.0
2021-08-09T18:02:00Z,00000200,20000000,,,,,,,-000.32,-000.37,-000.15,19.2,25.7,09.4,06.3,0670.4,31.0
2021-08-09T18:03:00Z,00000200,60000000,,,,,,,0000.49,0000.45,-000.11,19.2,25.8,09.4,06.3,0670.4,31.0
2021-08-09T18:04:00Z,00000200,40000000,0001.18,0001.53,0000.41,0000.50,0000.23,0000.44,0000.26,0000.82,0000.16,19.3,25.6,09.5,06.5,0671.4,31.0
2021-08-09T18:05:00Z,00000200,00000000,0001.96,0001.01,0000.40,0000.00,0000.13,0000.18,0000.54,0000.16,0000.72,19.4,25.6,09.7,06.7,0671.4,31.0
2021-08-09T18:06:00Z,00000200,00000000,0001.34,0000.83,0000.60,-000.11,0000.38,0000.16,0000.35,0000.11,-000.00,19.4,25.5,09.7,06.7,0671.5,31.0
2021-08-09T18:07:00Z,00000200,00000000,0000.69,0001.07,0000.58,0000.49,-000.00,0000.37,-000.52,-000.25,-000.11,19.4,25.5,09.7,06.6,0671.3,31.0
2021-08-09T18:08:00Z,00000200,00000000,0000.39,0000.93,0000.78,0000.07,0000.31,0000.37,0000.18,0000.06,-000.14,19.4,25.5,09.6,06.6,0671.4,31.0
2021-08-09T18:09:00Z,00000200,00000000,0001.38,0000.88,0000.60,0000.85,0000.44,0000.37,0000.78,0000.67,0001.02,19.4,25.5,09.8,06.7,0671.4,31.1
2021-08-09T18:10:00Z,00000200,00000000,0000.96,0000.87,0000.41,-000.16,0000.02,0000.22,-000.13,0000.04,-000.18,19.4,25.5,09.8,06.7,0671.4,31.0
2021-08-09T18:11:00Z,00000200,00000000,0001.19,0000.82,0000.70,-000.05,0000.21,-000.03,-000.02,-000.11,-000.05,19.4,25.5,09.6,06.6,0671.3,31.0
2021-08-09T18:12:00Z,00000200,00000000,0001.05,0000.94,0000.53,-000.02,0000.14,0000.40,0000.00,-000.09,0000.27,19.4,25.5,09.6,06.6,0671.3,31.0
2021-08-09T18:13:00Z,00000200,00000000,0000.93,0000.61,0000.69,0000.25,0000.20,0000.32,0000.02,0000.10,-000.02,19.4,25.5,09.7,06.7,0671.3,31.0
2021-08-09T18:14:00Z,00000200,00000000,0002.05,0000.73,0000.43,-000.21,-000.07,0000.20,0000.63,0000.48,0000.29,19.4,25.5,09.6,06.6,0671.3,31.0
2021-08-09T18:15:00Z,00000200,00000000,0001.26,0000.56,0000.35,0000.03,0000.10,0000.35,0000.35,0000.25,0000.33,19.4,25.5,09.8,06.7,0671.3,31.0
2021-08-09T18:16:00Z,00000200,00000000,0000.55,0000.80,0000.65,-000.04,-000.10,0000.34,0000.17,0000.34,0000.26,19.4,25.5,09.8,06.8,0671.3,31.0
2021-08-09T18:17:00Z,00000200,00000000,0000.56,0000.88,0000.89,0000.24,0000.25,0000.43,0000.12,0000.10,-000.04,19.4,25.5,09.8,06.8,0671.2,31.0
2021-08-09T18:18:00Z,00000200,00000000,0001.28,0000.90,0000.29,0000.66,0000.25,0000.26,0000.15,0000.07,0000.27,19.4,25.5,09.9,06.8,0671.3,31.0
2021-08-09T18:19:00Z,00000200,00000000,0001.03,0001.22,0000.45,-000.06,0000.27,0000.12,-000.17,-000.32,-000.24,19.4,25.5,09.9,06.8,0671.3,31.0
2021-08-09T18:20:00Z,00000200,00000000,0000.61,0000.87,0000.38,0000.61,0000.24,-000.10,-000.06,0000.21,0000.11,19.4,25.5,09.6,06.6,0671.3,31.0
2021-08-09T18:21:00Z,00000200,00000000,0000.76,0001.02,0000.58,-000.05,0000.44,0000.61,-000.09,-000.09,0000.02,19.4,25.5,09.5,06.6,0671.2,31.0
2021-08-09T18:22:00Z,00000200,00000000,0001.20,0000.97,0000.71,-000.25,0000.14,0000.30,0000.13,0000.12,0000.14,19.4,25.5,09.5,06.6,0671.2,31.0
2021-08-09T18:23:00Z,00000200,00000000,0001.26,0000.77,0000.55,0000.10,0000.17,0000.24,0000.05,-000.05,0000.14,19.4,25.5,09.4,06.5,0671.2,31.0
2021-08-09T18:24:00Z,00000200,00000000,0001.21,0000.66,0000.60,-000.11,0000.50,0000.28,0000.22,0000.34,-000.02,19.4,25.5,09.5,06.5,0671.3,31.0
2021-08-09T18:25:00Z,00000200,00000000,0000.68,0000.77,0000.70,0000.30,0000.46,0000.08,0000.84,0000.66,0000.65,19.4,25.5,09.6,06.6,0671.2,31.0
2021-08-09T18:26:00Z,00000200,00000000,0001.50,0001.21,0000.59,-000.57,0000.27,0000.26,-000.21,-000.19,-000.09,19.4,25.5,09.5,06.5,0671.3,31.0
2021-08-09T18:27:00Z,00000200,00000000,0001.36,0000.94,0001.02,-000.00,0000.32,0000.41,0000.14,0000.34,0000.28,19.4,25.5,09.5,06.6,0671.2,31.0
2021-08-09T18:28:00Z,00000200,00000000,0000.89,0001.08,0000.60,-000.13,0000.33,0000.12,-000.09,-000.43,0000.31,19.4,25.5,09.5,06.5,0671.3,31.0
2021-08-09T18:29:00Z,00000200,00000000,0001.99,0001.26,0000.73,-000.01,0000.19,0000.14,0000.01,0000.15,-000.32,19.4,25.5,09.3,06.4,0671.1,31.0
2021-08-09T18:30:00Z,00000200,00000000,0000.83,0000.97,0000.56,0000.12,0000.43,0000.38,-000.04,0000.05,-000.18,19.4,25.5,09.2,06.4,0671.1,31.0
2021-08-09T18:31:00Z,00000200,00000000,0000.86,0000.99,0000.72,0000.52,0000.17,-000.06,0000.20,0000.53,0000.48,19.4,25.5,09.4,06.5,0671.2,31.0
2021-08-09T18:32:00Z,00000200,00000000,0001.57,0001.18,0000.64,-000.04,0000.48,0000.47,0000.69,0000.20,0000.27,19.4,25.4,09.4,06.5,0671.2,31.0
2021-08-09T18:33:00Z,00000200,00000000,0001.58,0000.90,0000.57,0000.06,0000.12,0000.27,-000.13,0000.09,-000.16,19.4,25.4,09.3,06.4,0671.1,31.0
2021-08-09T18:34:00Z,00000200,00000000,0001.68,0000.87,0000.94,0000.68,0000.01,0000.51,0000.18,-000.24,-000.23,19.4,25.4,09.3,06.4,0671.1,31.0
2021-08-09T18:35:00Z,00000200,00000000,0001.37,0001.21,0000.84,-000.04,0000.64,0000.26,-000.02,0000.22,0000.28,19.4,25.4,09.0,06.2,0671.1,31.0
2021-08-09T18:36:00Z,00000200,00000000,0000.93,0001.21,0000.61,-000.15,0000.19,0000.00,0000.87,0000.88,0000.86,19.4,25.4,09.3,06.4,0671.2,31.0
2021-08-09T18:37:00Z,00000200,00000000,0001.62,0000.95,0000.84,0000.06,0000.40,0000.48,0000.08,0000.17,-000.13,19.4,25.4,09.3,06.4,0671.2,31.0
2021-08-09T18:38:00Z,00000200,00000000,0000.69,0001.31,0000.83,0000.00,0000.15,0000.45,-000.63,-000.55,-000.32,19.4,25.4,09.3,06.5,0671.1,31.0
2021-08-09T18:39:00Z,00000200,00000000,0001.27,0000.87,0000.56,-000.17,0000.30,0000.21,0000.57,0000.31,0000.34,19.4,25.5,08.9,06.1,0671.1,31.1
2021-08-09T18:40:00Z,00000200,00000000,0001.46,0000.99,0000.58,-000.05,0000.17,0000.40,0001.06,0000.85,0000.79,19.4,25.4,09.2,06.3,0671.3,31.0
2021-08-09T18:41:00Z,00000200,00000000,0001.72,0000.99,0000.63,0000.23,0000.23,0000.29,-000.23,0000.28,0000.05,19.4,25.4,09.2,06.4,0671.3,31.0
2021-08-09T18:42:00Z,00000200,00000000,0001.63,0001.17,0000.84,0000.41,0000.14,0000.46,0000.07,-000.14,0000.13,19.3,25.4,09.2,06.3,0671.3,31.0
2021-08-09T18:43:00Z,00000200,00000000,0000.69,0001.14,0000.68,0000.21,0000.40,0000.06,0000.39,0000.10,0000.26,19.3,25.4,09.3,06.4,0671.3,31.0
2021-08-09T18:44:00Z,00000200,00000000,0001.13,0001.19,0000.64,-000.25,0000.29,0000.10,0000.16,0000.25,0000.07,19.3,25.4,09.3,06.4,0671.3,31.0
2021-08-09T18:45:00Z,00000200,00000000,0001.92,0001.20,0000.75,0000.30,0000.42,0000.42,0000.16,0000.34,0000.38,19.3,25.4,09.3,06.4,0671.2,31.0
2021-08-09T18:46:00Z,00000200,00000000,0000.98,0000.96,0000.62,0000.36,0000.19,0000.08,0000.39,0000.27,0000.16,19.4,25.4,09.5,06.5,0671.2,31.0
2021-08-09T18:47:00Z,00000200,00000000,0001.18,0000.98,0000.67,-000.23,0000.33,0000.33,0000.19,0000.53,0000.34,19.3,25.4,09.3,06.5,0671.2,31.0
2021-08-09T18:48:00Z,00000200,00000000,0001.14,0000.93,0000.99,-000.22,0000.29,0000.23,0000.58,0000.29,0000.32,19.3,25.4,09.5,06.6,0671.2,31.1
2021-08-09T18:49:00Z,00000200,00000000,0000.88,0001.09,0000.43,-000.22,0000.42,0000.15,0000.11,-000.18,0000.26,19.3,25.4,09.5,06.6,0671.2,31.0
2021-08-09T18:50:00Z,00000200,00000000,0001.28,0001.37,0000.68,0000.05,0000.16,0000.30,0000.46,0000.53,0000.45,19.3,25.4,09.4,06.5,0671.2,31.1
2021-08-09T18:51:00Z,00000200,00000000,0001.22,0000.88,0000.67,0000.62,0000.48,0000.32,0000.23,0000.36,-000.16,19.3,25.4,09.5,06.6,0671.2,31.0
2021-08-09T18:52:00Z,00000200,00000000,0001.71,0000.89,0000.40,-000.19,0000.33,0000.13,0000.28,0000.43,0000.49,19.3,25.4,09.5,06.6,0671.2,31.0
2021-08-09T18:53:00Z,00000200,00000000,0001.85,0001.52,0000.99,-000.20,0000.06,0000.44,0000.08,0000.19,0000.14,19.3,25.4,09.6,06.6,0671.2,31.0
2021-08-09T18:54:00Z,00000200,00000000,0001.47,0001.20,0001.01,0000.67,0000.30,0000.57,-000.02,-000.08,-000.06,19.3,25.4,09.4,06.6,0671.3,31.0
2021-08-09T18:55:00Z,00000200,00000000,0001.48,0001.56,0000.85,0000.17,0000.29,0000.23,0000.54,0000.25,0000.29,19.3,25.4,09.4,06.5,0671.2,31.0
2021-08-09T18:56:00Z,00000200,00000000,0000.93,0001.50,0000.71,0000.20,0000.41,-000.02,0000.23,0000.11,-000.34,19.3,25.4,09.4,06.5,0671.2,31.0
2021-08-09T18:57:00Z,00000200,40000000,,,,,,,-000.05,0000.13,0000.55,19.3,25.4,08.8,06.1,0671.2,31.0
2021-08-09T18:58:00Z,00000200,60000000,,,,,,,-000.27,-000.27,-000.39,19.1,25.5,09.4,06.3,0670.3,31.0
2021-08-09T18:59:00Z,00000200,20000000,,,,,,,0000.44,0000.32,0000.23,19.1,25.6,09.4,06.3,0670.2,31.0
